Weather History for LHPP - March, 2013

Change the Weather History Date:

Friday, March 29, 2013

  Actual Average Record
Temperature  
Mean Temperature 38 °F -  
Max Temperature 43 °F 61 °F - ()
Min Temperature 32 °F 43 °F - ()
Degree Days  
Heating Degree Days 28    
Moisture  
Dew Point 35 °F    
Average Humidity 92    
Maximum Humidity 100    
Minimum Humidity 83    
Precipitation  
Precipitation 0.04 in 0.07 in - ()
Sea Level Pressure  
Sea Level Pressure 29.77 in    
Wind  
Wind Speed 8 mph ()    
Max Wind Speed 12 mph    
Max Gust Speed -    
Visibility 4.6 miles    
Events Rain    
T = Trace of Precipitation, MM = Missing Value Source: Averaged Metar Reports

Daily Weather History Graph

Daily Weather History Graph

Search for Another Location

Airport or City:

Trip Planner

Search our weather history database for the weather conditions in past years. The results will help you decide how hot, cold, wet, or windy it might be!

Date:

Astronomy

Mar. 29, 2013 Rise Set
Actual Time 5:32 AM CET 6:11 PM CET
Civil Twilight 5:02 AM CET 6:41 PM CET
Nautical Twilight 4:27 AM CET 7:17 PM CET
Astronomical Twilight 3:49 AM CET 7:54 PM CET
Moon 9:01 PM CET (3/29) 6:20 AM CET (3/29)
Length of Visible Light 13h 38m
Length of Day
12h 38m
Waning Gibbous, 95% of the Moon is Illuminated
Mar 29
Waning Gibbous
Apr 3
Last Quarter
Apr 10
New
Apr 18
First Quarter
Apr 25
Full

Hourly Weather History & Observations

Time (CET) Temp. Windchill Dew Point Humidity Pressure Visibility Wind Dir Wind Speed Gust Speed Precip Events Conditions
12:45 AM 33.8 °F 27.0 °F 33.8 °F 100% 29.92 in 3.7 mi East 8.1 mph - N/A   Overcast
1:00 AM 34 °F - 33 °F 94% 29.94 in 4 mi East 8.9 mph - -   Partly Cloudy
1:45 AM 33.8 °F 26.4 °F 32.0 °F 93% 29.89 in 3.7 mi East 9.2 mph - N/A   Overcast
2:45 AM 32.0 °F 23.0 °F 30.2 °F 93% 29.86 in 3.7 mi East 11.5 mph - N/A   Overcast
3:45 AM 32.0 °F 24.8 °F 30.2 °F 93% 29.83 in 3.7 mi East 8.1 mph - N/A   Overcast
4:45 AM 32.0 °F 23.6 °F 30.2 °F 93% 29.83 in 5.0 mi East 10.4 mph - N/A   Overcast
5:15 AM 32.0 °F 23.6 °F 30.2 °F 93% 29.80 in 5.0 mi East 10.4 mph - N/A   Overcast
5:45 AM 32.0 °F 24.2 °F 30.2 °F 93% 29.80 in 5.0 mi East 9.2 mph - N/A   Overcast
6:00 AM - - - N/A% - 5.0 mi East 9.2 mph - N/A   Overcast
6:15 AM 32.0 °F 24.2 °F 30.2 °F 93% 29.80 in 5.0 mi East 9.2 mph - N/A   Overcast
6:45 AM 32.0 °F 23.6 °F 30.2 °F 93% 29.80 in 5.0 mi East 10.4 mph - N/A   Mostly Cloudy
7:00 AM 33 °F - 30 °F 83% 29.82 in 5 mi East 8.9 mph - -   Partly Cloudy
7:15 AM 33.8 °F 27.0 °F 30.2 °F 87% 29.77 in 5.0 mi East 8.1 mph - N/A Rain Light Rain
7:45 AM 33.8 °F 26.4 °F 30.2 °F 87% 29.77 in 5.0 mi East 9.2 mph - N/A   Mostly Cloudy
8:15 AM 35.6 °F 28.6 °F 32.0 °F 87% 29.77 in 5.0 mi East 9.2 mph - N/A   Mostly Cloudy
8:45 AM 35.6 °F 28.6 °F 32.0 °F 87% 29.77 in 5.0 mi East 9.2 mph - N/A Rain Light Rain
9:00 AM - - - N/A% - 3.1 mi ESE 10.4 mph - N/A Rain Light Rain
9:15 AM 37.4 °F 30.8 °F 33.8 °F 87% 29.77 in 5.0 mi East 9.2 mph - N/A Rain Light Rain
9:16 AM 37.4 °F 30.8 °F 33.8 °F 87% 29.77 in - East 9.2 mph - N/A   Unknown
9:45 AM 37.4 °F 30.3 °F 33.8 °F 87% 29.77 in 5.0 mi East 10.4 mph - N/A Rain Light Rain
10:15 AM 37.4 °F 30.8 °F 35.6 °F 93% 29.74 in 5.0 mi East 9.2 mph - N/A Rain Light Rain
10:45 AM 37.4 °F 31.4 °F 35.6 °F 93% 29.74 in 5.0 mi East 8.1 mph - N/A Rain Light Rain
11:15 AM 37.4 °F 31.4 °F 35.6 °F 93% 29.74 in 3.7 mi East 8.1 mph - N/A Rain Light Rain
11:45 AM 39.2 °F 34.2 °F 37.4 °F 93% 29.74 in 3.7 mi East 6.9 mph - N/A Rain Light Rain
12:00 PM - - - N/A% - 4.3 mi East 10.4 mph - N/A   Overcast
12:15 PM 39.2 °F 33.6 °F 37.4 °F 93% 29.74 in 3.7 mi East 8.1 mph - N/A Rain Light Rain
12:45 PM 42.8 °F 39.3 °F 41.0 °F 93% 29.71 in 3.7 mi East 5.8 mph - N/A   Overcast
1:00 PM 42 °F - 41 °F 93% 29.74 in 4 mi East 6.7 mph - - Rain Light Rain
1:15 PM 42.8 °F 40.1 °F 39.2 °F 87% 29.71 in 3.7 mi NE 4.6 mph - N/A   Overcast
1:45 PM 42.8 °F 37.5 °F 41.0 °F 93% 29.74 in 3.7 mi North 9.2 mph - N/A   Overcast
2:15 PM 41.0 °F 35.2 °F 39.2 °F 93% 29.71 in 3.7 mi NNE 9.2 mph - N/A   Overcast
2:45 PM 39.2 °F 32.0 °F 37.4 °F 93% 29.74 in 3.7 mi North 11.5 mph - N/A   Overcast
3:00 PM - - - N/A% - 4.3 mi North 9.2 mph - N/A   Overcast
3:15 PM 39.2 °F 32.0 °F 35.6 °F 87% 29.74 in 3.7 mi NNW 11.5 mph - N/A Rain Light Rain
3:45 PM 41.0 °F 35.2 °F 37.4 °F 87% 29.74 in 3.7 mi North 9.2 mph - N/A Rain Light Rain
4:15 PM 39.2 °F 33.0 °F 37.4 °F 93% 29.74 in 6.2 mi North 9.2 mph - N/A Rain Light Rain
4:45 PM 39.2 °F 33.0 °F 37.4 °F 93% 29.74 in 6.2 mi NNE 9.2 mph - N/A Rain Light Rain
5:15 PM 39.2 °F 32.0 °F 37.4 °F 93% 29.74 in 6.2 mi NNE 11.5 mph - N/A Rain Rain
5:45 PM 39.2 °F 33.0 °F 35.6 °F 87% 29.74 in 6.2 mi ENE 9.2 mph - N/A Rain Light Rain
6:15 PM 39.2 °F 37.0 °F 37.4 °F 93% 29.74 in 6.2 mi East 3.5 mph - N/A Rain Light Rain
6:45 PM 37.4 °F 32.8 °F 37.4 °F 100% 29.74 in 5.0 mi East 5.8 mph - N/A   Overcast
7:00 PM 38 °F - 37 °F 94% 29.76 in 5 mi East 6.7 mph - - Rain Light Rain
7:15 PM 37.4 °F 30.3 °F 35.6 °F 93% 29.74 in 5.0 mi East 10.4 mph - N/A   Overcast
7:45 PM 37.4 °F 33.8 °F 35.6 °F 93% 29.74 in 5.0 mi East 4.6 mph - N/A Rain Light Rain Showers
8:15 PM 37.4 °F 32.1 °F 35.6 °F 93% 29.74 in 5.0 mi ESE 6.9 mph - N/A Rain Light Rain
8:45 PM 35.6 °F 30.7 °F 35.6 °F 100% 29.74 in 5.0 mi East 5.8 mph - N/A Rain Light Rain
9:45 PM 35.6 °F - 35.6 °F 100% 29.74 in 5.0 mi NE 1.2 mph - N/A Rain Light Rain
10:45 PM 35.6 °F 31.7 °F 35.6 °F 100% 29.71 in 5.0 mi NE 4.6 mph - N/A Rain Light Rain
11:45 PM 37.4 °F - 35.6 °F 93% 29.71 in 3.1 mi East 2.3 mph - N/A Rain Light Rain